Tracking 28790 objects as of 19-Apr-2024
HD Live streaming from Space Station
objects crossing your sky now

NOAA 17 DEB

Track NOAA 17 DEB now!
10-day predictions


NORAD ID: 48705
Int'l Code: 2002-032AP
Perigee: 794.8 km
Apogee: 812.7 km
Inclination: 98.7 °
Period: 100.8 minutes
Semi major axis: 7174 km
RCS: Unknown
Launch date: June 24, 2002
Source: United States (US)
Launch site: AIR FORCE WESTERN TEST RANGE (AFWTR)

Note: This is SATELLITE DEBRIS
Your satellite tracking list
Your tracking list is empty




NASA's NSSDC Master Catalog

Two Line Element Set (TLE):
1 48705U 02032AN  24109.84770197  .00005193  00000-0  20860-2 0  9996
2 48705  98.7344  61.1121 0012467 108.1188 252.1352 14.28543330161595
Source of the keplerian elements: AFSPC